Find Starlink 5980

NORAD ID: 56326 Int'l Des: 2023-058 Owner: SPXS Country: US Constellation: starlink operational
LEOCIRCULARRETROGRADESSO

Live Position

Loading 3D Globe...

About Starlink 5980

Description loading...

Upcoming Passes

Passes for default location (London). Set your location on the main map for personalized predictions.

Altitude History

Loading altitude history...

Two-Line Element Set

1 56326U 23058K 26125.53706205 -.00000707 00000-0 -44853-4 0 9998
2 56326 97.5299 126.0007 0003076 111.1467 249.0089 15.05653448166329
Epoch: May 5, 2026 • Age: 35 hours

Current Status

Altitude 551.9 km
Velocity 7.59 km/s
Sub-Earth Point 16.83°N, 100.52°W
Launch Date Apr 27, 2023
Age 3 years
Type internet

Technical Details

Classification Payload
Mass 300.00 kg
Dry Mass 260.00 kg
Total Mass 300.00 kg
Length 0.20 m
Diameter 2.80 m
Span 9.00 m
Shape Box + pan
Manufacturer SPXS
Bus Type Starlink
Phase Status In Orbit
Owner/State SPXS/US

Most Searched